This is the latest recevied weather packets stored in our database for station/object KK6MIG-13. If no packets are shown the sender has not sent any weather packets the latest 1 day(s).
| Time | Temp. | Humidity | Pressure | Rain* | Wind** | Luminosity | Snow |
|---|---|---|---|---|---|---|---|
| 1778001185 | 13.33° C | 1% | 1014.4 hPa | 0 mm | 3.58 m/s, 279° | 283 W/m² | - |
| 1778001125 | 13.33° C | 1% | 1014.5 hPa | 0 mm | 3.13 m/s, 245° | 287 W/m² | - |
| 1778001065 | 13.33° C | 1% | 1014.4 hPa | 0 mm | 3.13 m/s, 273° | 308 W/m² | - |
| 1778001004 | 13.33° C | 1% | 1014.4 hPa | 0 mm | 3.13 m/s, 273° | 315 W/m² | - |
| 1778000947 | 13.33° C | 1% | 1014.4 hPa | 0 mm | 3.13 m/s, 277° | 301 W/m² | - |
| 1778000942 | 13.33° C | 1% | 1014.4 hPa | 0 mm | 3.13 m/s, 258° | 313 W/m² | - |
| 1778000819 | 13.33° C | 1% | 1014.4 hPa | 0 mm | 3.13 m/s, 299° | 304 W/m² | - |
| 1778000758 | 13.33° C | 1% | 1014.4 hPa | 0 mm | 2.68 m/s, 288° | 290 W/m² | - |
| 1778000698 | 13.33° C | 1% | 1014.4 hPa | 0 mm | 2.68 m/s, 277° | 281 W/m² | - |
| 1778000633 | 13.33° C | 1% | 1014.3 hPa | 0 mm | 2.68 m/s, 282° | 264 W/m² | - |
| 1778000573 | 12.78° C | 1% | 1014.4 hPa | 0 mm | 2.68 m/s, 277° | 260 W/m² | - |
| 1778000512 | 12.78° C | 1% | 1014.3 hPa | 0 mm | 2.68 m/s, 284° | 250 W/m² | - |
| 1778000392 | 12.78° C | 1% | 1014.4 hPa | 0 mm | 2.68 m/s, 282° | 239 W/m² | - |
| 1778000326 | 12.78° C | 1% | 1014.4 hPa | 0 mm | 3.13 m/s, 280° | 216 W/m² | - |
| 1778000266 | 12.78° C | 1% | 1014.4 hPa | 0 mm | 3.13 m/s, 293° | 223 W/m² | - |
| 1778000206 | 12.78° C | 1% | 1014.4 hPa | 0 mm | 3.13 m/s, 268° | 250 W/m² | - |
| 1778000146 | 12.78° C | 1% | 1014.4 hPa | 0 mm | 3.13 m/s, 281° | 260 W/m² | - |
| 1778000086 | 12.78° C | 1% | 1014.4 hPa | 0 mm | 3.13 m/s, 284° | 265 W/m² | - |
| 1778000020 | 12.78° C | 1% | 1014.4 hPa | 0 mm | 3.13 m/s, 304° | 257 W/m² | - |
| 1777999969 | 12.78° C | 1% | 1014.4 hPa | 0 mm | 3.58 m/s, 279° | 239 W/m² | - |
| 1777999965 | 12.78° C | 1% | 1014.4 hPa | 0 mm | 3.13 m/s, 296° | 239 W/m² | - |
| 1777999840 | 12.78° C | 1% | 1014.4 hPa | 0 mm | 3.58 m/s, 312° | 237 W/m² | - |
| 1777999780 | 12.78° C | 1% | 1014.3 hPa | 0 mm | 3.13 m/s, 277° | 250 W/m² | - |
| 1777999715 | 12.78° C | 1% | 1014.4 hPa | 0 mm | 3.13 m/s, 277° | 250 W/m² | - |
| 1777999655 | 12.78° C | 1% | 1014.4 hPa | 0 mm | 3.13 m/s, 270° | 248 W/m² | - |
* Rain latest hour (hover to see other rain measurements)
** Current wind speed in m/s (hover to see current wind gust speed)